Marble, NC

7:49 PM EST on January 22, 2017 (GMT -0500)
Andrews

Weather History for KRHP - March, 2014

Change the Weather History Date:

Thursday, March 20, 2014

  Actual Average (KMMI) Record (KMMI)
Temperature  
Mean Temperature 46 °F -  
Max Temperature 60 °F 62 °F 59 °F (2014)
Min Temperature 33 °F 37 °F 33 °F (2014)
Degree Days  
Heating Degree Days 18    
Moisture  
Dew Point 31 °F    
Average Humidity 60    
Maximum Humidity 97    
Minimum Humidity 18    
Precipitation  
Precipitation 0.00 in - - ()
Sea Level Pressure  
Sea Level Pressure 30.07 in    
Wind  
Wind Speed 2 mph (ENE)    
Max Wind Speed 15 mph    
Max Gust Speed 26 mph    
Visibility 10 miles    
Events      
Averages and records for this station are not official NWS values.
T = Trace of Precipitation, MM = Missing Value Source: NWS Daily Summary

Daily Weather History Graph

Daily Weather History Graph

Search for Another Location

Airport or City:

Trip Planner

Search our weather history database for the weather conditions in past years. The results will help you decide how hot, cold, wet, or windy it might be!

Date:

Astronomy

Mar. 20, 2014 Rise Set
Actual Time 7:39 AM EDT 7:47 PM EDT
Civil Twilight 7:13 AM EDT 8:12 PM EDT
Nautical Twilight 6:44 AM EDT 8:42 PM EDT
Astronomical Twilight 6:14 AM EDT 9:12 PM EDT
Moon 11:56 PM EDT (3/20) 9:53 AM EDT (3/20)
Length of Visible Light 12h 58m
Length of Day
12h 08m
Waning Gibbous, 84% of the Moon is Illuminated
Mar 20
Waning Gibbous
Mar 23
Last Quarter
Mar 30
New
Apr 7
First Quarter
Apr 15
Full

Hourly Weather History & Observations

Time (EDT) Temp. Windchill Dew Point Humidity Pressure Visibility Wind Dir Wind Speed Gust Speed Precip Events Conditions
12:15 AM 48.7 °F - 45.3 °F 88% 30.06 in 10.0 mi Calm Calm - N/A   Overcast
12:35 AM 48.2 °F - 45.9 °F 92% 30.06 in 10.0 mi Calm Calm - N/A   Overcast
12:55 AM 47.7 °F - 45.5 °F 92% 30.06 in 10.0 mi Calm Calm - N/A   Overcast
1:15 AM 47.3 °F - 45.1 °F 92% 30.06 in 10.0 mi Calm Calm - N/A   Overcast
1:35 AM 47.3 °F - 45.5 °F 93% 30.06 in 10.0 mi Calm Calm - N/A   Overcast
1:55 AM 46.9 °F - 45.1 °F 93% 30.06 in 10.0 mi Calm Calm - N/A   Overcast
2:15 AM 46.8 °F - 45.0 °F 93% 30.06 in 10.0 mi Calm Calm - N/A   Overcast
2:35 AM 46.4 °F - 44.8 °F 94% 30.06 in 10.0 mi Calm Calm - N/A   Overcast
2:55 AM 46.4 °F - 44.8 °F 94% 30.06 in 10.0 mi Calm Calm - N/A   Overcast
3:15 AM 46.9 °F - 44.6 °F 92% 30.06 in 10.0 mi Calm Calm - N/A   Overcast
3:35 AM 46.2 °F - 44.6 °F 94% 30.05 in 7.0 mi Calm Calm - N/A   Overcast
3:55 AM 46.4 °F - 44.2 °F 92% 30.04 in 10.0 mi Calm Calm - N/A   Overcast
4:15 AM 45.5 °F - 44.4 °F 96% 30.04 in 7.0 mi Calm Calm - N/A   Overcast
4:35 AM 44.6 °F - 43.7 °F 97% 30.04 in 7.0 mi Calm Calm - N/A   Overcast
4:55 AM 44.6 °F - 43.2 °F 95% 30.04 in 10.0 mi Calm Calm - N/A   Overcast
5:15 AM 44.4 °F - 43.0 °F 95% 30.04 in 10.0 mi Calm Calm - N/A   Mostly Cloudy
5:35 AM 42.3 °F - 41.4 °F 97% 30.05 in 7.0 mi Calm Calm - N/A   Mostly Cloudy
5:55 AM 41.7 °F - 40.8 °F 97% 30.05 in 7.0 mi Calm Calm - N/A   Overcast
6:15 AM 40.6 °F - 39.7 °F 97% 30.06 in 10.0 mi Calm Calm - N/A   Overcast
6:35 AM 39.6 °F - 38.5 °F 96% 30.06 in 10.0 mi Calm Calm - N/A   Mostly Cloudy
6:55 AM 37.9 °F - 37.2 °F 97% 30.07 in 10.0 mi Calm Calm - N/A   Mostly Cloudy
7:15 AM 37.2 °F - 36.0 °F 95% 30.08 in 10.0 mi Calm Calm - N/A   Scattered Clouds
7:35 AM 38.5 °F 36.1 °F 37.0 °F 95% 30.08 in 10.0 mi NNE 3.5 mph - N/A   Scattered Clouds
7:55 AM 41.5 °F - 36.1 °F 81% 30.08 in 10.0 mi Calm Calm - N/A   Clear
8:15 AM 39.6 °F 37.4 °F 36.3 °F 88% 30.09 in 10.0 mi East 3.5 mph - N/A   Clear
8:35 AM 41.9 °F 40.0 °F 37.4 °F 84% 30.09 in 10.0 mi SE 3.5 mph - N/A   Clear
8:55 AM 43.0 °F - 37.6 °F 81% 30.09 in 10.0 mi Calm Calm - N/A   Clear
9:15 AM 46.2 °F 43.3 °F 37.8 °F 72% 30.10 in 10.0 mi ESE 5.8 mph - N/A   Clear
9:35 AM 47.5 °F - 36.7 °F 66% 30.10 in 10.0 mi East 5.8 mph - N/A   Clear
9:55 AM 48.0 °F - 34.5 °F 60% 30.10 in 10.0 mi ESE 5.8 mph - N/A   Clear
10:15 AM 50.0 °F - 30.2 °F 47% 30.10 in 10.0 mi ENE 6.9 mph - N/A   Clear
10:35 AM 50.7 °F - 27.5 °F 41% 30.10 in 10.0 mi SE 4.6 mph - N/A   Clear
10:55 AM 52.5 °F - 28.0 °F 39% 30.10 in 10.0 mi SSE 4.6 mph - N/A   Clear
11:15 AM 53.6 °F - 25.9 °F 34% 30.10 in 10.0 mi SSE 5.8 mph - N/A   Clear
11:35 AM 55.0 °F - 26.6 °F 33% 30.11 in 10.0 mi South 3.5 mph - N/A   Clear
11:55 AM 54.9 °F - 25.0 °F 32% 30.10 in 10.0 mi South 4.6 mph - N/A   Clear
12:15 PM 56.7 °F - 23.9 °F 28% 30.09 in 10.0 mi ESE 5.8 mph - N/A   Clear
12:35 PM 57.7 °F - 24.6 °F 28% 30.08 in 10.0 mi East 8.1 mph 16.1 mph N/A   Clear
12:55 PM 58.3 °F - 21.9 °F 25% 30.08 in 10.0 mi ESE 8.1 mph 16.1 mph N/A   Clear
1:15 PM 58.8 °F - 23.4 °F 26% 30.07 in 10.0 mi ESE 11.5 mph 17.3 mph N/A   Clear
1:35 PM 59.0 °F - 22.1 °F 24% 30.07 in 10.0 mi ENE 9.2 mph 18.4 mph N/A   Clear
1:55 PM 59.7 °F - 23.4 °F 25% 30.05 in 10.0 mi NE 10.4 mph 26.5 mph N/A   Clear
2:15 PM 60.4 °F - 25.7 °F 27% 30.04 in 10.0 mi NNE 15.0 mph - N/A   Clear
2:35 PM 59.7 °F - 23.7 °F 25% 30.05 in 10.0 mi NNE 8.1 mph 20.7 mph N/A   Clear
2:55 PM 59.9 °F - 19.8 °F 21% 30.04 in 10.0 mi North 8.1 mph 17.3 mph N/A   Clear
3:15 PM 60.1 °F - 16.3 °F 18% 30.04 in 10.0 mi North 9.2 mph 23.0 mph N/A   Clear
3:35 PM 60.6 °F - 16.5 °F 18% 30.04 in 10.0 mi NNW 4.6 mph 19.6 mph N/A   Clear
3:55 PM 59.7 °F - 23.2 °F 25% 30.04 in 10.0 mi NE 12.7 mph 23.0 mph N/A   Clear
4:15 PM 59.4 °F - 24.4 °F 26% 30.04 in 10.0 mi NNE 6.9 mph - N/A   Clear
4:35 PM 59.4 °F - 20.7 °F 22% 30.04 in 10.0 mi NNE 11.5 mph 20.7 mph N/A   Clear
4:55 PM 58.5 °F - 20.1 °F 23% 30.04 in 10.0 mi NNE 15.0 mph - N/A   Clear
5:15 PM 58.3 °F - 19.9 °F 23% 30.04 in 10.0 mi NNW 6.9 mph - N/A   Clear
5:35 PM 57.7 °F - 21.9 °F 25% 30.04 in 10.0 mi NNE 9.2 mph - N/A   Clear
5:55 PM 57.6 °F - 22.8 °F 26% 30.04 in 10.0 mi NE 9.2 mph - N/A   Clear
6:15 PM 57.0 °F - 23.0 °F 27% 30.04 in 10.0 mi NE 10.4 mph - N/A   Clear
6:35 PM 56.3 °F - 22.8 °F 27% 30.04 in 10.0 mi NE 5.8 mph - N/A   Clear
6:55 PM 55.8 °F - 19.9 °F 25% 30.04 in 10.0 mi ENE 6.9 mph - N/A   Clear
7:15 PM 54.3 °F - 21.0 °F 27% 30.04 in 10.0 mi ENE 3.5 mph - N/A   Clear
7:35 PM 52.3 °F - 22.3 °F 31% 30.05 in 10.0 mi Calm Calm - N/A   Clear
7:55 PM 48.0 °F - 25.9 °F 42% 30.06 in 10.0 mi Calm Calm - N/A   Clear
8:15 PM 48.7 °F - 23.0 °F 36% 30.07 in 10.0 mi Calm Calm - N/A   Clear
8:35 PM 44.2 °F - 25.3 °F 47% 30.08 in 10.0 mi Calm Calm - N/A   Clear
8:55 PM 40.8 °F 37.8 °F 26.8 °F 57% 30.08 in 10.0 mi NE 4.6 mph - N/A   Clear
9:15 PM 40.5 °F - 28.0 °F 61% 30.09 in 10.0 mi Calm Calm - N/A   Clear
9:35 PM 41.2 °F - 26.6 °F 56% 30.10 in 10.0 mi Calm Calm - N/A   Clear
9:55 PM 38.8 °F - 27.1 °F 63% 30.10 in 10.0 mi Calm Calm - N/A   Clear
10:15 PM 37.9 °F - 27.0 °F 65% 30.11 in 10.0 mi Calm Calm - N/A   Clear
10:35 PM 37.8 °F - 26.6 °F 64% 30.11 in 10.0 mi Calm Calm - N/A   Clear
10:55 PM 36.0 °F - 27.3 °F 71% 30.11 in 10.0 mi Calm Calm - N/A   Clear
11:15 PM 33.8 °F - 27.3 °F 77% 30.11 in 10.0 mi Calm Calm - N/A   Clear
11:35 PM 33.4 °F - 27.3 °F 78% 30.12 in 10.0 mi Calm Calm - N/A   Clear
11:55 PM 33.8 °F - 26.1 °F 73% 30.12 in 10.0 mi Calm Calm - N/A   Clear